| time (UTC) | temp C | wind direction | speed KPH | gust KPH | rain 1hr cm | rain 24hr cm | rain mn cm | humidity % | barometer mb |
| 20260504201804 | 21 | 257 | 3.2 | 9.7 | 0.00 | 0.00 | 0.00 | 46 | 1014.8 |
| 20260504201302 | 21 | 295 | 3.2 | 6.4 | 0.00 | 0.00 | 0.00 | 45 | 1015.1 |
| 20260504200759 | 22 | 331 | 6.4 | 9.7 | 0.00 | 0.00 | 0.00 | 45 | 1015.1 |
| 20260504200255 | 21 | 292 | 1.6 | 6.4 | 0.00 | 0.00 | 0.00 | 48 | 1015.1 |
| 20260504195752 | 21 | 232 | 4.8 | 6.4 | 0.00 | 0.00 | 0.00 | 52 | 1015.2 |
| 20260504195247 | 21 | 251 | 4.8 | 6.4 | 0.00 | 0.00 | 0.00 | 46 | 1015.3 |
| 20260504194745 | 20 | 47 | 6.4 | 11.3 | 0.00 | 0.00 | 0.00 | 49 | 1015.3 |
| 20260504194241 | 20 | 285 | 1.6 | 11.3 | 0.00 | 0.00 | 0.00 | 48 | 1015.6 |
| 20260504193737 | 21 | 342 | 4.8 | 9.7 | 0.00 | 0.00 | 0.00 | 49 | 1015.6 |
| 20260504193235 | 20 | 348 | 4.8 | 6.4 | 0.00 | 0.00 | 0.00 | 49 | 1015.7 |
| 20260504192733 | 20 | 337 | 3.2 | 9.7 | 0.00 | 0.00 | 0.00 | 49 | 1015.7 |
| 20260504192231 | 21 | 306 | 3.2 | 6.4 | 0.00 | 0.00 | 0.00 | 49 | 1016.0 |
| 20260504191729 | 20 | 271 | 1.6 | 6.4 | 0.00 | 0.00 | 0.00 | 50 | 1015.8 |
| 20260504191226 | 20 | 185 | 8.0 | 9.7 | 0.00 | 0.00 | 0.00 | 50 | 1016.1 |
| 20260504190721 | 20 | 229 | 3.2 | 6.4 | 0.00 | 0.00 | 0.00 | 53 | 1016.3 |
| 20260504190218 | 20 | 240 | 4.8 | 9.7 | 0.00 | 0.00 | 0.00 | 53 | 1016.1 |
| 20260504185714 | 20 | 307 | 1.6 | 4.8 | 0.00 | 0.00 | 0.00 | 52 | 1016.3 |
| 20260504185211 | 19 | 285 | 1.6 | 3.2 | 0.00 | 0.00 | 0.00 | 49 | 1016.0 |
| 20260504184707 | 20 | 319 | 4.8 | 6.4 | 0.00 | 0.00 | 0.00 | 49 | 1016.3 |
| 20260504184203 | 20 | 271 | 4.8 | 6.4 | 0.00 | 0.00 | 0.00 | 51 | 1016.5 |
| 20260504183659 | 20 | 215 | 9.7 | 12.9 | 0.00 | 0.00 | 0.00 | 51 | 1016.3 |
| 20260504183156 | 19 | 292 | 0.0 | 3.2 | 0.00 | 0.00 | 0.00 | 53 | 1016.6 |
| 20260504182654 | 18 | 308 | 1.6 | 6.4 | 0.00 | 0.00 | 0.00 | 51 | 1016.5 |
| 20260504182151 | 19 | 269 | 3.2 | 6.4 | 0.00 | 0.00 | 0.00 | 52 | 1016.5 |
| 20260504181649 | 18 | 293 | 1.6 | 9.7 | 0.00 | 0.00 | 0.00 | 54 | 1016.6 |
| 20260504181146 | 18 | 279 | 0.0 | 4.8 | 0.00 | 0.00 | 0.00 | 50 | 1016.7 |
| 20260504180645 | 18 | 326 | 4.8 | 6.4 | 0.00 | 0.00 | 0.00 | 51 | 1016.5 |
| 20260504180143 | 18 | 332 | 3.2 | 9.7 | 0.00 | 0.00 | 0.00 | 52 | 1016.5 |
| 20260504175640 | 19 | 203 | 6.4 | 11.3 | 0.00 | 0.00 | 0.00 | 52 | 1016.6 |
| 20260504175137 | 18 | 241 | 6.4 | 9.7 | 0.00 | 0.00 | 0.00 | 51 | 1016.4 |
| 20260504174636 | 18 | 275 | 3.2 | 4.8 | 0.00 | 0.00 | 0.00 | 52 | 1016.6 |
| 20260504174131 | 19 | 320 | 4.8 | 6.4 | 0.00 | 0.00 | 0.00 | 51 | 1016.7 |
| 20260504173629 | 19 | 260 | 3.2 | 6.4 | 0.00 | 0.00 | 0.00 | 52 | 1016.7 |
| 20260504173126 | 18 | 222 | 4.8 | 9.7 | 0.00 | 0.00 | 0.00 | 53 | 1016.7 |
| 20260504172622 | 18 | 274 | 1.6 | 3.2 | 0.00 | 0.00 | 0.00 | 52 | 1016.7 |
| 20260504172119 | 18 | 234 | 4.8 | 4.8 | 0.00 | 0.00 | 0.00 | 54 | 1016.6 |
| 20260504171615 | 18 | 294 | 0.0 | 4.8 | 0.00 | 0.00 | 0.00 | 51 | 1016.8 |
| 20260504171113 | 17 | 302 | 3.2 | 4.8 | 0.00 | 0.00 | 0.00 | 53 | 1016.7 |
| 20260504170609 | 17 | 352 | 4.8 | 9.7 | 0.00 | 0.00 | 0.00 | 51 | 1016.6 |
| 20260504170107 | 18 | 282 | 4.8 | 6.4 | 0.00 | 0.00 | 0.00 | 51 | 1017.0 |
| 20260504150952 | 12 | 282 | 1.6 | 3.2 | 0.00 | 0.00 | 0.00 | 78 | 1018.0 |
| 20260504150449 | 12 | 310 | 3.2 | 6.4 | 0.00 | 0.00 | 0.00 | 78 | 1018.5 |
| 20260504140916 | 13 | 282 | 1.6 | 4.8 | 0.00 | 0.00 | 0.00 | 60 | 1018.6 |
| 20260504140412 | 13 | 298 | 1.6 | 4.8 | 0.00 | 0.00 | 0.00 | 57 | 1018.4 |
| 20260504130337 | 8 | 275 | 1.6 | 1.6 | 0.00 | 0.00 | 0.00 | 72 | 1017.8 |
| 20260504120300 | 3 | 307 | 1.6 | 1.6 | 0.00 | 0.00 | 0.00 | 90 | 1017.5 |
| 20260504110224 | 1 | 306 | 0.0 | 3.2 | 0.00 | 0.00 | 0.00 | 94 | 1017.4 |
| 20260504100148 | 1 | 3 | 3.2 | 3.2 | 0.00 | 0.00 | 0.00 | 94 | 1017.4 |
| 20260504090110 | 2 | 294 | 0.0 | 0.0 | 0.00 | 0.00 | 0.00 | 89 | 1017.2 |
| 20260504081541 | 2 | 293 | 0.0 | 1.6 | 0.00 | 0.00 | 0.00 | 87 | 1017.2 |
| 20260504081036 | 2 | 310 | 1.6 | 3.2 | 0.00 | 0.00 | 0.00 | 86 | 1017.0 |
| 20260504080533 | 2 | 302 | 0.0 | 1.6 | 0.00 | 0.00 | 0.00 | 85 | 1016.9 |
| 20260504050346 | 2 | 312 | 1.6 | 1.6 | 0.00 | 0.00 | 0.00 | 83 | 1017.5 |
| 20260504045843 | 2 | 303 | 0.0 | 1.6 | 0.00 | 0.00 | 0.00 | 84 | 1017.5 |
| 20260504045338 | 2 | 301 | 0.0 | 1.6 | 0.00 | 0.00 | 0.00 | 83 | 1017.7 |
| 20260504044835 | 2 | 295 | 0.0 | 0.0 | 0.00 | 0.00 | 0.00 | 82 | 1017.7 |
| 20260504044332 | 2 | 295 | 0.0 | 0.0 | 0.00 | 0.00 | 0.00 | 83 | 1017.7 |
| 20260504043830 | 3 | 294 | 0.0 | 0.0 | 0.00 | 0.00 | 0.00 | 82 | 1017.7 |
| 20260504043326 | 3 | 300 | 0.0 | 0.0 | 0.00 | 0.00 | 0.00 | 80 | 1017.6 |
| 20260504042824 | 3 | 302 | 0.0 | 0.0 | 0.00 | 0.00 | 0.00 | 79 | 1017.5 |
| 20260504042320 | 3 | 300 | 0.0 | 0.0 | 0.00 | 0.00 | 0.00 | 78 | 1017.5 |
| 20260504041816 | 3 | 301 | 0.0 | 0.0 | 0.00 | 0.00 | 0.00 | 78 | 1017.8 |
| 20260504041312 | 3 | 312 | 1.6 | 1.6 | 0.00 | 0.00 | 0.00 | 78 | 1017.8 |
| 20260504040809 | 3 | 286 | 0.0 | 1.6 | 0.00 | 0.00 | 0.00 | 77 | 1017.9 |
| 20260504040307 | 3 | 286 | 1.6 | 1.6 | 0.00 | 0.00 | 0.00 | 76 | 1017.6 |
| 20260504035802 | 3 | 286 | 0.0 | 0.0 | 0.00 | 0.00 | 0.00 | 77 | 1017.8 |
| 20260504035300 | 3 | 286 | 0.0 | 0.0 | 0.00 | 0.00 | 0.00 | 77 | 1017.6 |
| 20260504034757 | 3 | 286 | 0.0 | 0.0 | 0.00 | 0.00 | 0.00 | 78 | 1017.5 |
| 20260504034254 | 3 | 285 | 0.0 | 1.6 | 0.00 | 0.00 | 0.00 | 77 | 1017.6 |
| 20260504033751 | 4 | 292 | 0.0 | 0.0 | 0.00 | 0.00 | 0.00 | 76 | 1017.4 |
| 20260504033249 | 4 | 311 | 1.6 | 1.6 | 0.00 | 0.00 | 0.00 | 73 | 1017.6 |
| 20260504032745 | 4 | 303 | 0.0 | 1.6 | 0.00 | 0.00 | 0.00 | 73 | 1017.6 |
| 20260504032243 | 3 | 310 | 1.6 | 1.6 | 0.00 | 0.00 | 0.00 | 73 | 1017.5 |
| 20260504031739 | 3 | 301 | 0.0 | 0.0 | 0.00 | 0.00 | 0.00 | 74 | 1017.4 |
| 20260504031237 | 4 | 303 | 1.6 | 1.6 | 0.00 | 0.00 | 0.00 | 74 | 1017.6 |
| 20260504030732 | 4 | 310 | 1.6 | 1.6 | 0.00 | 0.00 | 0.00 | 72 | 1017.4 |
| 20260504030230 | 4 | 307 | 1.6 | 1.6 | 0.00 | 0.00 | 0.00 | 72 | 1017.3 |
| 20260504025726 | 4 | 303 | 1.6 | 1.6 | 0.00 | 0.00 | 0.00 | 72 | 1017.5 |
| 20260504025223 | 4 | 298 | 0.0 | 0.0 | 0.00 | 0.00 | 0.00 | 72 | 1017.5 |
| 20260504024720 | 4 | 300 | 0.0 | 0.0 | 0.00 | 0.00 | 0.00 | 73 | 1017.5 |
| 20260504024217 | 4 | 273 | 0.0 | 0.0 | 0.00 | 0.00 | 0.00 | 71 | 1017.5 |
| 20260504023714 | 5 | 272 | 0.0 | 1.6 | 0.00 | 0.00 | 0.00 | 70 | 1017.5 |
| 20260504023209 | 5 | 273 | 1.6 | 1.6 | 0.00 | 0.00 | 0.00 | 69 | 1017.6 |
| 20260504022706 | 5 | 272 | 1.6 | 1.6 | 0.00 | 0.00 | 0.00 | 69 | 1017.6 |
| 20260504022202 | 6 | 286 | 0.0 | 1.6 | 0.00 | 0.00 | 0.00 | 66 | 1017.5 |
| 20260504021700 | 6 | 315 | 1.6 | 1.6 | 0.00 | 0.00 | 0.00 | 60 | 1017.7 |
| 20260504021156 | 6 | 314 | 3.2 | 3.2 | 0.00 | 0.00 | 0.00 | 61 | 1017.6 |
| 20260504020653 | 6 | 321 | 1.6 | 3.2 | 0.00 | 0.00 | 0.00 | 62 | 1017.4 |
| 20260504020149 | 6 | 314 | 1.6 | 3.2 | 0.00 | 0.00 | 0.00 | 63 | 1017.4 |
| 20260504015646 | 6 | 315 | 1.6 | 1.6 | 0.00 | 0.00 | 0.00 | 62 | 1017.4 |
| 20260504015142 | 7 | 317 | 1.6 | 1.6 | 0.00 | 0.00 | 0.00 | 59 | 1017.2 |
| 20260504014638 | 7 | 323 | 1.6 | 4.8 | 0.00 | 0.00 | 0.00 | 58 | 1017.4 |
| 20260504014136 | 7 | 313 | 1.6 | 3.2 | 0.00 | 0.00 | 0.00 | 61 | 1017.0 |
| 20260504013633 | 7 | 313 | 1.6 | 1.6 | 0.00 | 0.00 | 0.00 | 58 | 1016.9 |
| 20260504013130 | 7 | 312 | 0.0 | 1.6 | 0.00 | 0.00 | 0.00 | 55 | 1016.8 |
| 20260504012627 | 8 | 313 | 1.6 | 1.6 | 0.00 | 0.00 | 0.00 | 52 | 1017.0 |
| 20260504012125 | 8 | 316 | 1.6 | 3.2 | 0.00 | 0.00 | 0.00 | 52 | 1017.2 |
| 20260504011622 | 8 | 316 | 1.6 | 1.6 | 0.00 | 0.00 | 0.00 | 50 | 1016.9 |
| 20260504011118 | 8 | 309 | 1.6 | 3.2 | 0.00 | 0.00 | 0.00 | 48 | 1016.8 |
| 20260504010614 | 9 | 316 | 1.6 | 3.2 | 0.00 | 0.00 | 0.00 | 47 | 1016.9 |
| 20260504010110 | 9 | 358 | 4.8 | 4.8 | 0.00 | 0.00 | 0.00 | 45 | 1016.7 |
| 20260504005607 | 10 | 320 | 3.2 | 3.2 | 0.00 | 0.00 | 0.00 | 45 | 1016.5 |
| 20260504005104 | 10 | 334 | 3.2 | 3.2 | 0.00 | 0.00 | 0.00 | 42 | 1016.5 |
| 20260504004602 | 10 | 311 | 1.6 | 3.2 | 0.00 | 0.00 | 0.00 | 43 | 1016.7 |
| 20260504004059 | 10 | 317 | 1.6 | 3.2 | 0.00 | 0.00 | 0.00 | 42 | 1016.6 |
| 20260504003555 | 10 | 307 | 1.6 | 1.6 | 0.00 | 0.00 | 0.00 | 41 | 1016.6 |
| 20260504003052 | 10 | 305 | 1.6 | 1.6 | 0.00 | 0.00 | 0.00 | 40 | 1016.6 |
| 20260504002549 | 10 | 310 | 1.6 | 3.2 | 0.00 | 0.00 | 0.00 | 40 | 1016.5 |
| 20260504002046 | 11 | 309 | 1.6 | 1.6 | 0.00 | 0.00 | 0.00 | 39 | 1016.6 |
| 20260504001544 | 11 | 313 | 1.6 | 1.6 | 0.00 | 0.00 | 0.00 | 40 | 1016.6 |
| 20260504001039 | 11 | 294 | 0.0 | 3.2 | 0.00 | 0.00 | 0.00 | 37 | 1016.7 |
| 20260504000537 | 11 | 296 | 0.0 | 4.8 | 0.00 | 0.00 | 0.00 | 38 | 1016.5 |
| 20260504000034 | 11 | 290 | 3.2 | 3.2 | 0.00 | 0.00 | 0.00 | 36 | 1016.5 |
| 20260503235533 | 11 | 262 | 0.0 | 1.6 | 0.00 | 0.00 | 0.00 | 35 | 1016.5 |
| 20260503235029 | 11 | 275 | 1.6 | 1.6 | 0.00 | 0.00 | 0.00 | 35 | 1016.4 |
| 20260503234527 | 12 | 294 | 0.0 | 3.2 | 0.00 | 0.00 | 0.00 | 36 | 1016.5 |
| 20260503234025 | 12 | 299 | 0.0 | 3.2 | 0.00 | 0.00 | 0.00 | 34 | 1016.6 |
| 20260503233521 | 12 | 319 | 3.2 | 4.8 | 0.00 | 0.00 | 0.00 | 33 | 1016.4 |
| 20260503233017 | 12 | 326 | 3.2 | 3.2 | 0.00 | 0.00 | 0.00 | 35 | 1016.4 |
| 20260503232514 | 12 | 216 | 1.6 | 4.8 | 0.00 | 0.00 | 0.00 | 32 | 1016.4 |
| 20260503232012 | 12 | 303 | 0.0 | 6.4 | 0.00 | 0.00 | 0.00 | 34 | 1016.4 |
| 20260503231510 | 12 | 292 | 1.6 | 3.2 | 0.00 | 0.00 | 0.00 | 32 | 1016.4 |
| 20260503231006 | 12 | 279 | 3.2 | 14.5 | 0.00 | 0.00 | 0.00 | 32 | 1016.3 |
| 20260503230503 | 13 | 266 | 1.6 | 11.3 | 0.00 | 0.00 | 0.00 | 34 | 1016.4 |
| 20260503230000 | 13 | 353 | 6.4 | 9.7 | 0.00 | 0.00 | 0.00 | 32 | 1016.5 |
| 20260503225456 | 13 | 70 | 3.2 | 6.4 | 0.00 | 0.00 | 0.00 | 32 | 1016.3 |
| 20260503224952 | 13 | 239 | 3.2 | 4.8 | 0.00 | 0.00 | 0.00 | 36 | 1016.2 |
| 20260503224449 | 13 | 300 | 4.8 | 14.5 | 0.00 | 0.00 | 0.00 | 35 | 1016.5 |
| 20260503223947 | 13 | 266 | 1.6 | 4.8 | 0.00 | 0.00 | 0.00 | 35 | 1016.5 |
| 20260503223445 | 13 | 225 | 4.8 | 6.4 | 0.00 | 0.00 | 0.00 | 40 | 1016.3 |
| 20260503222940 | 13 | 193 | 6.4 | 9.7 | 0.00 | 0.00 | 0.00 | 34 | 1016.4 |
| 20260503222439 | 14 | 217 | 6.4 | 9.7 | 0.00 | 0.00 | 0.00 | 33 | 1016.3 |
| 20260503221937 | 15 | 311 | 4.8 | 6.4 | 0.00 | 0.00 | 0.00 | 32 | 1016.4 |
| 20260503221435 | 15 | 295 | 0.0 | 3.2 | 0.00 | 0.00 | 0.00 | 32 | 1016.4 |
| 20260503220931 | 15 | 212 | 3.2 | 4.8 | 0.00 | 0.00 | 0.00 | 33 | 1016.5 |
| 20260503220427 | 14 | 298 | 3.2 | 6.4 | 0.00 | 0.00 | 0.00 | 31 | 1016.5 |
| 20260503215925 | 15 | 339 | 8.0 | 11.3 | 0.00 | 0.00 | 0.00 | 30 | 1016.6 |
| 20260503215422 | 14 | 316 | 4.8 | 6.4 | 0.00 | 0.00 | 0.00 | 30 | 1016.5 |
| 20260503214919 | 15 | 206 | 6.4 | 11.3 | 0.00 | 0.00 | 0.00 | 29 | 1016.7 |
| 20260503214416 | 15 | 323 | 4.8 | 4.8 | 0.00 | 0.00 | 0.00 | 30 | 1016.6 |
| 20260503213914 | 15 | 253 | 3.2 | 9.7 | 0.00 | 0.00 | 0.00 | 31 | 1016.5 |
| 20260503213412 | 15 | 313 | 3.2 | 6.4 | 0.00 | 0.00 | 0.00 | 30 | 1016.5 |
| 20260503212908 | 15 | 273 | 4.8 | 12.9 | 0.00 | 0.00 | 0.00 | 31 | 1016.5 |
| 20260503212406 | 15 | 258 | 0.0 | 9.7 | 0.00 | 0.00 | 0.00 | 30 | 1016.5 |
| 20260503211903 | 15 | 212 | 4.8 | 9.7 | 0.00 | 0.00 | 0.00 | 32 | 1016.7 |
| 20260503211359 | 16 | 314 | 4.8 | 6.4 | 0.00 | 0.00 | 0.00 | 29 | 1016.6 |
| 20260503210854 | 16 | 296 | 3.2 | 4.8 | 0.00 | 0.00 | 0.00 | 30 | 1016.8 |
| 20260503210352 | 16 | 308 | 6.4 | 12.9 | 0.00 | 0.00 | 0.00 | 29 | 1016.7 |
| 20260503205847 | 16 | 292 | 0.0 | 4.8 | 0.00 | 0.00 | 0.00 | 30 | 1016.6 |
| 20260503205344 | 16 | 318 | 1.6 | 3.2 | 0.00 | 0.00 | 0.00 | 28 | 1016.7 |
| 20260503204840 | 16 | 325 | 1.6 | 4.8 | 0.00 | 0.00 | 0.00 | 29 | 1016.6 |
| 20260503204338 | 16 | 309 | 1.6 | 6.4 | 0.00 | 0.00 | 0.00 | 29 | 1016.7 |
| 20260503203835 | 16 | 324 | 1.6 | 3.2 | 0.00 | 0.00 | 0.00 | 28 | 1016.8 |
| 20260503203332 | 16 | 358 | 6.4 | 11.3 | 0.00 | 0.00 | 0.00 | 29 | 1017.0 |
| 20260503202829 | 15 | 289 | 3.2 | 6.4 | 0.00 | 0.00 | 0.00 | 31 | 1016.9 |
| 20260503202327 | 16 | 318 | 1.6 | 9.7 | 0.00 | 0.00 | 0.00 | 30 | 1017.0 |